Tracking 19176 objects as of 27-May-2018
HD Live streaming from Space Station
objects crossing your sky now

FENGYUN 1C DEB

Track FENGYUN 1C DEB now!
10-day predictions


NORAD ID: 30069
Int'l Code: 1999-025PW
Perigee: 854.0 km
Apogee: 926.0 km
Inclination: 98.9 °
Period: 102.6 minutes
Semi major axis: 7260 km
RCS: 0.0677 m2 (small)
Launch date: May 10, 1999
Source: People's Republic of China (PRC)
Launch site: Taiyaun Space Center, China (TSC)

Note: This is SATELLITE DEBRIS
aabbcc
Your satellite tracking list
Your tracking list is empty




NASA's NSSDC Master Catalog

Two Line Element Set (TLE):
1 30069U 99025PW  18146.97166198 +.00000255 +00000-0 +18973-3 0  9993
2 30069 098.8685 187.1722 0049550 208.5060 226.8477 14.03169246581697
Source of the keplerian elements: AFSPC